Location: El Limón
(10.3059°N, 67.6321°W)
Time: 02:36:51
(UTC+00:00)

Nadezhda 2 Rocket - Visible Passes

Search period start: 15 December 2025 00:00
Search period end: 25 December 2025 00:00
Orbit: 946 x 1011 km, 83.0° (Epoch: 14 December)

Date Brightness Start Highest point End Pass type
(mag) Time Alt. Az. Time Alt. Az. Time Alt. Az.
15 Dec 4.9 23:21:18 10° NNW 23:27:19 64° W 23:33:24 10° S visible
16 Dec 6.4 23:48:22 10° NW 23:53:28 29° W 23:58:38 10° SSW visible
17 Dec 4.7 22:28:42 10° NNE 22:34:35 50° E 22:40:31 10° SSE visible
18 Dec 7.3 00:17:25 10° WNW 00:19:34 12° W 00:21:45 10° WSW visible
18 Dec 7.2 09:57:10 10° SE 10:01:31 19° E 10:05:49 10° NE visible
18 Dec 4.7 22:54:43 10° N 23:00:48 74° W 23:06:57 10° S visible
19 Dec 6.2 23:21:36 10° NNW 23:26:58 33° W 23:32:24 10° SSW visible
20 Dec 7.3 23:49:59 10° WNW 23:53:05 14° W 23:56:12 10° WSW visible
21 Dec 7.3 09:31:14 10° SE 09:35:02 17° E 09:38:47 10° NE visible
21 Dec 4.6 22:28:10 10° N 22:34:17 85° W 22:40:30 10° S visible
22 Dec 6.2 09:55:25 10° SSE 10:01:11 37° E 10:06:49 10° NNE visible
22 Dec 6.0 22:54:52 10° NNW 23:00:27 38° W 23:06:08 10° SSW visible
23 Dec 4.7 10:21:01 10° S 10:27:21 82° E 10:33:35 10° N visible
23 Dec 7.2 23:22:50 10° NW 23:26:35 17° W 23:30:23 10° SW visible
24 Dec 7.3 09:05:28 10° ESE 09:08:33 14° E 09:11:37 10° ENE visible
